This is the latest recevied weather packets stored in our database for station/object N3MFL. If no packets are shown the sender has not sent any weather packets the latest 10 day(s).
| Time | Temp. | Humidity | Pressure | Rain* | Wind** | Luminosity | Snow |
|---|---|---|---|---|---|---|---|
| 1777785625 | 8.89° C | 72% | 1010.3 hPa | 0 mm | - | 0 W/m² | - |
| 1777785321 | 8.89° C | 76% | 1010.2 hPa | 0 mm | - | 0 W/m² | - |
| 1777785019 | 8.89° C | 77% | 1010.1 hPa | 0 mm | - | 0 W/m² | - |
| 1777784714 | 8.89° C | 75% | 1010.3 hPa | 0 mm | - | 0 W/m² | - |
| 1777784412 | 8.89° C | 78% | 1010.4 hPa | 0 mm | - | 0 W/m² | - |
| 1777784109 | 9.44° C | 79% | 1010.6 hPa | 0 mm | - | 0 W/m² | - |
| 1777783806 | 8.89° C | 80% | 1010.5 hPa | 0 mm | - | 0 W/m² | - |
| 1777783502 | 8.89° C | 84% | 1010.8 hPa | 0 mm | - | 0 W/m² | - |
| 1777783200 | 8.89° C | 87% | 1010.7 hPa | 0 mm | - | 0 W/m² | - |
| 1777782896 | 8.89° C | 90% | 1010.8 hPa | 0 mm | - | 0 W/m² | - |
| 1777782593 | 8.89° C | 91% | 1010.6 hPa | 0 mm | - | 0 W/m² | - |
| 1777782289 | 8.89° C | 92% | 1010.6 hPa | 0 mm | - | 0 W/m² | - |
| 1777781986 | 8.89° C | 92% | 1010.8 hPa | 0 mm | - | 0 W/m² | - |
| 1777781683 | 8.89° C | 93% | 1010.7 hPa | 0 mm | - | 0 W/m² | - |
| 1777781381 | 8.89° C | 93% | 1011 hPa | 0 mm | - | 0 W/m² | - |
| 1777781077 | 8.89° C | 93% | 1011.1 hPa | 0 mm | - | 0 W/m² | - |
| 1777780775 | 8.89° C | 94% | 1011 hPa | 0 mm | - | 0 W/m² | - |
| 1777780471 | 8.33° C | 94% | 1011.3 hPa | 0 mm | - | 0 W/m² | - |
| 1777780169 | 8.33° C | 94% | 1011.2 hPa | 0 mm | - | 0 W/m² | - |
| 1777779867 | 8.33° C | 95% | 1010.9 hPa | 0 mm | - | 0 W/m² | - |
| 1777779563 | 8.33° C | 95% | 1011 hPa | 0 mm | - | 0 W/m² | - |
| 1777779261 | 8.33° C | 94% | 1011 hPa | 0 mm | - | 0 W/m² | - |
| 1777778959 | 8.33° C | 94% | 1011.1 hPa | 0 mm | - | 0 W/m² | - |
| 1777778657 | 8.33° C | 94% | 1011 hPa | 0 mm | - | 0 W/m² | - |
| 1777778354 | 8.33° C | 94% | 1010.9 hPa | 0 mm | - | 0 W/m² | - |
* Rain latest hour (hover to see other rain measurements)
** Current wind speed in m/s (hover to see current wind gust speed)